sat.trackr.live / text

‹ back to catalog

STARLINK-38087

NORAD 69743 · 2026-150E

PAYLOAD ACTIVE UNKNOWN

§ Identity

Operator
Country
US
Launch date
2026-07-02
Launch site
AFWTR
Launch vehicle
Mass (kg)
RCS (m²)

Purposes: comms

External: N2YO · Heavens-Above · Gunter

§ Orbital elements

Epoch: 2026-09-19T08:34:13.071936Z

Period
93.91 min
Inclination
97.2846°
Eccentricity
0.0001901
Mean motion
15.33454235 rev/d
Perigee alt
464.2 km
Apogee alt
466.8 km
Semi-major
6,843.7 km
B*
3.6855e-4
RAAN
101.3441°
Arg perigee
92.2166°
Mean anomaly
267.9294°
Rev number
1,356

§ Raw data

STARLINK-380871 69743U 26150E   26262.35709574  .00011845  00000+0  36855-3 0  99992 69743  97.2846 101.3441 0001901  92.2166 267.9294 15.33454235 13567

JSON: /api/v1/satellites/69743 · /tle

For live sub-satellite position, see the globe view (requires WebGL).

§ Visibility from observer

Set your observer location to see the next 7 days of passes ≥ 10°. The values pass through the URL so the page stays shareable.

No JS? Fill the form by hand. The geolocation button needs JavaScript.